Location: Rounton
(54.4000°N, 1.3500°W)
Time: 05:12:57
(UTC+00:00)

Vanguard 1 - Pass Details

Date: 30 November 2021
Orbit: 652 x 3830 km, 34.2° (Epoch: 17 January)

Event Time Altitude Azimuth Distance (km) Brightness Sun altitude
Exits shadow 01:57:49 34° 149° (SSE) 4,562 13.2 -49.8°
Drops below altitude 10° 02:09:04 10° 109° (ESE) 5,390 14.0 -48.6°
Sets 02:12:57 0° 101° (ESE) 6,009 14.5 -48.1°
